Regional Weather Roundup
Issued by NWS Sioux Falls, SD

Home | Current Version | Previous Version | Text Only | Print | Product List | Glossary On
Versions: 1 2 3 4 5 6 7 8 9 10 11 12 13 14 15 16 17 18 19 20 21 22 23 24 25 26 27 28 29 30 31 32 33 34 35 36 37 38 39 40 41 42 43 44 45 46 47 48 49 50
000
ASUS43 KFSD 281702
RWRFSD

WEATHER ROUNDUP FOR SE SOUTH DAKOTA/SW MINNESOTA/NW IOWA
NATIONAL WEATHER SERVICE SIOUX FALLS SD
1200 PM CDT SUN MAY 28 2017

NOTE: "FAIR" INDICATES FEW OR NO CLOUDS BELOW 12,000 FEET WITH NO
SIGNIFICANT WEATHER AND OR OBSTRUCTIONS TO VISIBILITY.


SDZ038>040-050-052>070-281800-
SOUTHEAST SOUTH DAKOTA

CITY           SKY/WX    TMP DP  RH WIND       PRES   REMARKS
BROOKINGS      MOSUNNY   66  45  46 NW21      29.87S
CHAMBERLAIN    NOT AVBL
HURON          MOSUNNY   72  40  31 NW23G31   29.89S
MADISON        FAIR      64  45  48 NW17G23   29.90R
MITCHELL       SUNNY     73  41  31 N17G31    29.92R
SIOUX FALLS    MOSUNNY   70  50  49 NW8       29.88R
WINNER         FAIR      72  43  35 NW20G25   30.00R
YANKTON        SUNNY     70  48  45 NW16G24   29.91S
$$

MNZ071-072-080-081-089-090-097-098-281800-
SOUTHWEST MINNESOTA

CITY           SKY/WX    TMP DP  RH WIND       PRES   REMARKS
FAIRMONT       SUNNY     69  43  38 NW13G22   29.83S
JACKSON        SUNNY     70  41  35 W8G21     29.85S
MARSHALL       MOSUNNY   70  41  34 NW22G32   29.82F
MONTEVIDEO     PTSUNNY   70  45  40 N16G25    29.80S
PIPESTONE      MOSUNNY   68  36  30 NW17G23   29.87S
REDWOOD FALLS  MOSUNNY   70  42  36 NW16G26   29.80F
TRACY          PTSUNNY   69  45  41 NW14G24   29.84S
WINDOM         SUNNY     70  41  35 NW15G25   29.84S
WORTHINGTON    MOSUNNY   68  44  42 W15G21    29.86S
$$

IAZ001>003-012>014-020>022-031-032-NEZ013-014-SDZ071-281800-
NORTHWEST IOWA

CITY           SKY/WX    TMP DP  RH WIND       PRES   REMARKS
CHEROKEE       SUNNY     71  48  44 W10G17    29.87S
DENISON        SUNNY     73  48  40 W12       29.89F
ESTHERVILLE    SUNNY     69  44  40 NW16G23   29.84R
LE MARS        SUNNY     72  50  46 VRB6G17   29.89R
ORANGE CITY    SUNNY     70  50  49 W10G17    29.88S
SHELDON        SUNNY     68  45  42 NW14      29.86S
SIOUX CITY     SUNNY     74  52  46 NW13      29.88S
SPENCER        SUNNY     71  46  40 NW9G21    29.86S
STORM LAKE       N/A     72  46  40 W9G18     29.87S
$$

ABBREVIATIONS USED IN REMARKS
   TC - TEMPERATURE IN CELSIUS
  WCI - WIND CHILL INDEX
   HX - HEAT INDEX
  VSB - VISIBILITY





USA.gov is the U.S. government's official web portal to all federal, state and local government web resources and services.